Theta_e
311 311 310 311 311 311 310 310 310 310 310 310 311 311 311 311 310 310 310 309 311 312 312 312 312 310 312 312 313 312 310 310 310 312 314 315 316 316 317 317 319 319 319 317 317 319 317
309 309 310 310 310 310 310 310 310 309 310 310 311 311 311 309 308 309 308 307 308 311 312 312 312 310 312 313 312 310 310 309 310 311 312 314 315 315 316 316 317 317 318 318 317 319 318
309 309 309 310 310 310 309 309 309 309 310 310 310 310 311 311 310 310 310 308 305 306 308 309 312 311 311 312 311 311 310 310 309 311 312 312 313 315 314 315 315 317 318 320 317 318 318
308 308 309 309 309 309 309 309 309 309 309 310 310 310 309 310 310 310 310 307 305 306 308 308 312 311 311 311 310 311 311 310 310 310 311 312 313 314 314 313 312 315 319 322 317 317 317
308 308 308 308 308 308 309 308 308 309 309 309 309 309 309 309 309 309 308 306 306 307 306 309 310 311 311 309 311 310 309 309 307 310 311 312 313 313 312 314 314 313 317 323 318 316 317
308 308 308 308 308 308 308 308 308 308 308 308 308 308 307 308 308 308 307 306 307 307 308 309 310 311 310 310 310 310 310 310 309 311 312 312 313 314 311 312 314 315 314 321 317 315 316
309 308 308 308 308 308 308 308 308 308 307 308 307 307 307 307 307 309 309 310 311 311 310 310 310 310 310 309 310 311 309 309 312 312 314 313 315 316 314 311 311 311 319 319 315 316 316
309 309 309 308 308 308 308 307 307 307 307 307 307 307 306 307 308 307 307 310 310 309 311 309 309 310 309 310 312 312 309 310 313 313 313 313 316 313 312 311 313 314 319 317 314 315 315
308 309 309 309 308 308 308 307 306 307 307 306 306 306 306 307 307 308 308 309 308 308 312 310 309 311 310 310 311 312 311 311 310 312 315 314 315 313 314 311 315 319 319 317 318 316 315
309 308 309 309 308 308 307 307 307 307 306 306 306 306 306 307 309 307 309 308 308 308 315 310 312 312 311 311 313 310 311 313 314 316 313 314 312 314 314 316 314 318 316 316 316 318 318
309 308 309 308 308 307 307 307 307 306 306 306 306 306 306 306 309 309 308 306 307 309 319 311 312 310 311 312 311 312 311 313 315 314 313 315 313 315 315 315 315 318 314 317 317 318 316
308 309 308 308 307 307 307 307 307 306 306 306 306 306 306 308 307 307 306 306 307 315 319 310 312 312 312 311 311 311 312 313 312 315 314 315 311 313 314 315 314 313 315 317 318 317 324
308 308 308 308 307 307 307 307 307 306 306 306 305 305 306 306 310 306 306 308 315 320 311 315 313 313 312 312 313 311 314 315 317 318 319 317 315 312 311 312 311 312 317 324 326 329 325
308 307 308 308 307 307 307 307 307 306 306 306 305 306 307 307 306 306 307 313 320 314 314 313 312 313 314 313 312 313 315 316 314 315 319 323 320 315 313 314 314 314 319 324 325 322 321
308 307 307 308 307 307 307 307 307 306 306 305 305 307 309 307 306 306 312 320 317 313 312 314 314 315 315 314 313 314 315 315 313 313 319 319 319 313 311 312 312 313 318 313 317 316 320
307 308 307 307 307 307 307 307 307 307 305 306 308 310 310 306 306 308 314 318 313 311 312 314 315 313 314 314 315 315 314 313 314 312 312 314 318 314 313 312 312 313 310 318 319 323 320
307 307 307 307 307 307 306 306 307 306 304 305 308 313 307 306 306 312 318 316 313 311 312 314 314 314 313 313 313 313 313 313 313 314 311 312 314 315 313 315 314 313 314 314 315 316 319
307 308 307 307 307 307 306 305 306 306 304 306 312 316 306 306 315 313 317 312 309 312 311 312 313 313 313 313 314 314 313 313 313 313 314 311 314 317 316 313 312 313 313 314 316 314 315
308 307 307 307 307 306 306 305 305 306 305 307 312 313 305 307 319 315 312 312 312 313 313 313 314 313 312 313 314 314 313 313 312 313 315 313 314 317 315 312 312 314 313 310 313 315 316
308 307 307 307 307 307 306 305 305 306 306 306 310 317 308 307 312 311 311 312 312 311 312 312 312 312 312 313 313 314 314 314 312 313 310 311 312 313 316 314 313 314 313 311 313 317 313
309 307 307 307 307 307 306 305 305 305 305 306 310 313 311 316 314 311 311 311 311 312 311 311 312 311 312 313 313 313 313 313 313 312 311 312 316 312 310 310 311 311 312 313 313 313 314
309 308 307 307 307 307 306 306 305 305 304 307 312 310 307 309 308 310 310 311 311 310 310 311 311 311 310 311 312 313 312 312 313 312 312 310 315 311 312 309 308 310 311 311 312 312 311
310 308 308 307 307 307 306 306 305 305 304 308 306 305 307 308 309 309 310 309 310 309 309 308 308 309 310 310 309 309 309 309 309 311 312 311 313 314 314 308 309 311 311 311 311 312 311
310 309 308 307 306 307 307 306 305 305 304 305 305 306 308 309 309 309 308 308 308 308 308 308 307 307 307 304 304 305 308 308 309 307 307 310 311 312 315 308 313 310 304 307 311 311 311
309 310 309 308 307 307 306 306 305 305 305 304 303 305 308 310 309 308 307 308 308 307 308 307 307 306 304 305 308 308 309 308 308 307 307 306 309 311 312 310 311 307 303 306 309 310 311
305 308 310 308 307 306 306 307 305 305 305 303 303 303 305 308 310 306 307 308 309 309 308 307 304 303 304 307 305 304 304 305 304 307 305 305 306 309 308 309 310 305 304 303 305 308 304
304 305 308 310 308 306 306 306 306 305 305 305 304 302 304 308 307 305 308 308 307 307 307 307 306 305 303 307 305 304 305 303 305 305 308 310 310 311 311 310 310 305 303 304 307 307 304
302 303 306 310 310 307 306 306 306 305 305 305 304 302 304 308 307 302 303 305 305 306 309 306 307 306 306 307 306 305 304 304 305 305 307 309 311 311 311 311 314 303 303 305 305 304 304
301 302 305 308 310 308 306 306 306 305 305 305 305 301 301 303 306 300 301 300 301 301 305 305 306 306 307 307 305 304 305 302 304 307 302 305 308 307 309 310 303 303 305 303 304 305 305
Wind_Speed
6 5 6 5 4 5 6 7 7 8 8 8 9 10 10 10 10 11 12 13 15 15 14 15 15 7 6 5 9 4 8 10 10 6 13 15 15 16 16 14 17 12 24 20 25 15 10
7 6 6 7 7 6 6 7 8 8 8 8 9 11 11 12 12 13 14 16 17 18 16 13 12 8 10 12 1 1 7 11 12 11 13 16 13 14 8 13 14 9 17 23 22 20 15
6 6 6 6 7 7 7 8 9 10 10 10 11 12 12 14 15 16 17 18 19 18 13 10 9 8 10 13 3 7 9 10 10 14 14 14 19 9 9 4 16 19 20 23 20 24 16
7 6 6 7 8 8 8 9 9 10 11 12 12 14 14 15 15 16 17 19 18 16 9 9 9 8 6 5 7 11 11 14 15 16 13 12 8 13 5 2 3 8 17 18 26 24 17
7 8 7 8 8 9 9 9 10 11 12 12 13 14 15 16 16 16 17 16 17 10 10 6 6 6 9 4 6 12 11 8 8 13 14 9 9 4 4 2 2 7 10 26 26 24 17
7 8 8 8 9 9 9 10 11 12 12 13 14 14 15 16 16 16 16 16 9 3 4 6 8 7 8 9 16 11 14 14 6 13 9 8 6 5 4 5 11 10 15 23 23 21 22
8 7 8 7 8 9 9 10 11 12 12 13 13 15 15 15 15 13 15 7 4 5 4 3 8 10 11 16 5 5 7 10 4 14 7 9 4 9 16 16 14 17 22 24 24 18 22
8 8 8 8 7 8 9 9 11 12 12 12 13 14 14 14 13 10 6 4 4 3 6 6 8 9 9 5 6 3 4 5 2 10 10 2 11 15 7 5 12 20 22 21 22 12 21
10 8 9 10 9 8 9 9 10 11 12 12 12 13 13 12 11 3 3 2 1 3 5 6 5 6 6 5 5 5 1 4 1 1 6 7 3 7 11 6 10 15 22 19 13 13 21
13 10 10 11 9 8 9 9 9 10 11 12 11 11 10 10 4 2 1 1 0 2 3 5 2 1 4 6 4 3 3 4 4 3 4 4 4 8 11 8 11 11 18 18 18 17 14
15 12 10 11 9 9 8 9 9 11 11 11 11 9 7 2 4 2 0 1 1 3 3 5 4 4 6 7 9 4 1 4 7 1 2 1 2 6 12 8 12 4 1 16 19 20 16
15 15 11 11 10 7 8 9 10 10 10 10 9 8 4 2 2 1 1 2 3 3 3 4 5 6 6 3 3 5 3 3 0 4 4 0 4 3 2 7 12 7 6 1 15 13 9
18 15 14 12 10 8 7 9 9 9 8 9 7 6 3 1 2 2 2 4 3 3 1 5 4 6 6 5 4 5 5 6 4 4 3 3 1 1 4 6 7 9 11 4 6 5 9
19 16 15 13 10 8 7 9 9 8 7 7 3 4 4 2 2 2 3 3 3 1 2 1 2 7 5 6 2 4 4 4 1 5 3 3 4 2 3 3 4 9 8 4 6 6 6
20 18 16 14 12 7 6 8 8 8 6 4 3 2 3 2 3 2 4 2 2 2 3 4 5 7 2 1 4 3 4 4 3 3 4 2 2 1 3 4 5 5 5 3 4 4 8
24 20 19 16 13 10 7 6 8 7 6 3 2 4 2 3 3 3 3 4 2 2 2 3 6 2 5 4 3 2 2 2 3 4 5 2 1 2 1 2 1 2 5 2 3 5 9
27 23 20 17 15 12 9 5 7 7 4 5 4 3 2 3 2 4 3 3 3 5 3 3 5 6 5 5 5 5 3 1 3 6 4 7 3 3 2 3 3 3 4 3 4 3 2
29 27 23 19 17 14 11 7 4 5 2 4 2 3 2 2 3 3 4 2 1 4 5 5 5 7 7 6 6 4 5 3 4 6 6 5 4 2 2 2 4 6 7 9 3 2 1
27 30 26 21 19 16 12 9 6 4 2 2 2 1 0 3 3 4 2 4 4 5 6 3 4 5 3 5 5 3 2 2 3 3 7 7 3 3 3 3 2 3 2 2 7 3 2
29 30 28 24 22 18 13 10 8 5 4 4 2 3 2 3 5 5 5 6 5 4 6 5 7 5 6 7 5 6 4 1 1 2 4 3 4 6 4 2 3 3 4 2 5 3 2
28 29 29 27 24 20 15 12 9 7 7 7 4 2 2 3 6 8 2 3 6 4 6 5 4 9 6 5 6 5 3 3 4 2 2 3 5 4 2 3 2 2 4 5 5 5 4
30 28 27 28 27 21 17 13 10 7 6 7 3 3 3 3 2 6 6 4 7 5 4 5 7 3 5 7 6 5 3 3 3 2 2 1 4 3 2 0 3 4 7 7 8 7 7
30 28 28 28 28 22 20 15 11 9 10 6 2 1 3 4 4 5 5 4 4 3 5 4 3 5 6 4 5 6 4 2 2 3 4 1 2 4 1 1 2 6 14 12 6 7 7
27 27 25 27 27 25 22 18 12 11 13 5 3 2 3 4 6 6 2 3 5 7 5 1 4 4 3 2 2 3 2 3 3 1 1 3 5 2 3 3 4 1 4 4 12 7 12
4 26 26 26 25 26 23 21 16 10 12 10 4 3 2 6 5 6 8 5 3 3 4 3 2 3 1 3 3 4 4 4 5 1 2 3 4 2 3 4 9 5 3 4 6 2 10
7 3 27 26 25 29 25 22 19 13 12 10 7 6 3 4 3 2 4 5 4 5 3 3 1 0 2 2 3 3 2 2 2 4 2 2 5 4 2 3 3 4 4 2 1 4 3
12 11 9 32 26 30 28 24 23 17 12 9 5 11 3 3 1 3 3 3 2 1 1 3 4 3 2 3 3 3 2 1 2 3 4 3 4 8 7 3 6 5 6 3 4 3 1
11 19 10 24 32 29 31 27 24 20 13 10 4 11 3 3 2 2 2 3 3 3 3 4 4 3 3 3 2 1 3 1 3 0 2 6 5 4 5 5 5 8 5 3 4 3 1
15 15 20 20 34 30 32 30 25 22 15 11 6 8 10 4 3 2 3 3 2 2 2 4 3 2 2 3 2 1 3 1 3 1 2 3 3 2 4 2 2 8 2 3 2 4 3
Wind_Direction
281 303 312 309 332 335 345 333 327 333 331 326 320 315 310 312 314 318 324 326 325 319 312 326 334 336 317 269 271 208 296 307 311 281 247 228 231 222 234 225 245 253 249 225 243 254 258
264 284 300 310 315 324 325 322 324 322 323 320 317 312 309 307 308 310 314 317 324 320 319 305 314 296 281 276 136 273 301 306 263 265 257 232 233 239 266 262 212 258 244 247 225 244 249
260 268 277 296 303 304 313 318 318 319 319 316 313 310 311 311 306 308 308 310 315 319 316 299 295 279 278 265 278 275 302 292 272 244 254 247 230 207 157 272 256 236 254 251 236 228 234
265 270 285 287 293 298 299 299 306 310 312 312 312 311 310 309 310 311 308 307 309 315 301 288 281 271 266 274 285 291 290 291 268 234 241 249 218 226 220 354 310 268 243 254 210 223 217
274 272 272 283 287 291 297 300 304 306 308 310 311 311 312 312 311 311 309 308 308 299 302 262 258 239 277 294 275 318 301 262 275 231 221 211 178 218 145 63 274 226 276 227 201 207 213
270 275 277 281 286 293 298 301 301 301 306 307 310 312 313 315 316 313 312 314 298 299 290 246 256 268 213 324 318 316 316 271 220 210 192 183 188 184 145 172 240 247 250 214 201 189 213
274 279 278 279 290 295 299 300 303 305 305 305 309 311 312 317 317 318 329 317 239 188 237 307 316 285 298 322 320 6 349 7 242 179 183 187 193 208 223 218 232 248 245 199 200 184 196
268 284 294 302 295 296 297 300 305 303 303 305 306 306 313 318 315 324 318 324 44 358 298 234 282 280 286 327 295 81 29 6 208 200 178 182 235 228 224 255 237 240 242 197 199 164 195
270 277 293 301 297 298 301 302 306 308 305 302 301 305 311 318 314 350 321 34 59 341 270 285 298 293 309 310 300 321 6 164 273 348 218 221 325 212 200 206 256 244 219 192 167 187 204
269 278 280 297 299 297 304 308 312 311 305 301 300 303 313 317 308 325 276 141 312 325 288 284 322 67 288 289 258 246 212 266 243 66 191 268 278 232 226 213 232 229 209 187 173 180 182
258 270 278 291 297 302 312 319 318 313 308 303 298 299 304 309 316 286 1 250 202 228 309 318 326 327 281 299 313 144 259 318 6 74 222 13 250 254 216 198 217 251 216 222 172 196 173
245 258 266 281 293 300 313 317 319 319 319 307 297 286 293 315 255 225 220 205 217 248 295 331 331 334 309 282 313 299 288 194 109 278 224 131 212 292 287 190 241 274 180 214 192 208 186
245 245 260 269 287 287 303 312 322 328 319 316 292 262 226 255 345 185 221 231 286 304 60 321 333 314 322 327 315 335 349 313 316 301 20 291 59 318 208 220 176 219 168 157 165 197 188
238 241 251 260 276 278 296 310 322 329 321 319 280 213 239 224 244 179 244 243 284 263 267 61 210 300 311 347 345 305 308 305 272 284 334 332 138 30 342 254 212 197 192 157 189 167 144
234 240 242 251 264 270 281 310 320 329 327 322 134 186 221 208 183 211 255 270 297 310 335 303 286 257 296 281 274 306 262 323 331 317 331 298 43 30 4 332 324 171 210 97 282 291 159
225 235 238 241 253 256 262 298 316 325 326 226 207 215 184 188 193 233 261 262 258 215 293 267 296 321 351 19 261 264 329 51 325 311 305 329 106 33 34 290 99 298 124 28 204 222 170
221 227 234 236 242 248 262 264 308 325 347 149 214 236 114 177 215 229 250 267 249 211 230 283 310 292 313 330 308 313 320 325 7 339 303 305 289 111 289 3 347 164 204 198 280 299 235
223 223 228 231 238 244 256 258 280 314 350 174 254 238 134 181 241 220 246 228 323 226 200 262 283 282 297 327 301 306 301 323 358 327 325 19 312 207 121 0 315 306 325 314 261 227 321
224 224 223 229 232 239 250 251 242 284 247 260 247 75 193 235 246 219 204 249 247 216 217 215 266 250 304 300 304 274 275 23 328 329 352 2 255 194 176 224 216 274 335 327 302 338 321
219 221 223 225 231 234 238 245 241 254 247 232 258 232 158 218 276 280 278 252 237 217 248 236 273 260 267 266 236 294 287 267 315 329 324 294 296 301 277 14 341 206 221 227 302 297 60
221 219 222 222 229 228 234 246 244 245 250 210 211 243 5 207 220 228 222 288 245 233 224 222 242 242 279 278 271 259 264 244 195 206 239 345 308 341 333 15 285 293 278 212 221 268 296
215 219 218 221 223 224 226 239 243 233 184 228 258 242 180 283 245 215 197 240 244 222 234 214 241 275 254 263 302 305 312 249 208 157 183 233 297 312 265 52 330 301 267 246 234 270 282
209 214 219 219 219 221 221 230 232 212 178 243 198 234 280 125 213 221 221 252 254 219 207 259 275 276 255 293 320 311 291 280 312 306 194 231 292 324 320 271 254 258 247 222 207 210 235
214 214 220 219 215 218 217 222 234 216 205 268 239 261 237 255 229 223 242 235 234 227 281 203 234 253 53 115 301 249 212 244 227 166 255 235 217 191 295 239 225 202 24 347 224 227 227
103 218 218 223 216 215 218 216 221 229 221 227 241 225 240 268 258 242 233 230 208 200 230 258 189 358 188 287 277 262 204 225 199 204 225 249 252 233 255 236 292 180 213 169 182 240 226
351 355 220 222 220 215 217 217 213 226 222 218 232 219 268 293 222 239 195 208 237 224 190 184 113 76 237 271 256 265 264 10 190 179 205 253 257 266 198 263 271 56 135 168 201 244 115
357 343 256 220 219 217 216 217 210 217 223 209 233 201 242 254 203 216 219 202 164 231 310 140 162 175 259 233 249 258 268 348 269 238 178 180 214 228 236 277 284 105 131 159 196 85 6
334 359 318 220 216 214 213 213 210 208 220 207 236 205 213 262 262 244 252 194 156 230 254 121 161 190 183 233 259 238 265 115 274 182 209 197 190 200 213 230 262 142 123 233 81 107 44
345 332 345 221 214 212 209 210 209 207 210 208 232 207 207 255 343 244 257 278 329 22 304 184 354 166 212 252 239 304 246 215 298 271 204 239 250 331 236 243 62 192 35 101 62 80 73